| time (UTC) | temp C | wind direction | speed KPH | gust KPH | rain 1hr cm | rain 24hr cm | rain mn cm | humidity % | barometer mb |
| 20260505052007 | 13 | 165 | 0.0 | 4.8 | 0.00 | 0.00 | 0.00 | 76 | 1011.0 |
| 20260505051525 | 12 | 202 | 1.6 | 4.8 | 0.00 | 0.00 | 0.00 | 77 | 1011.0 |
| 20260505051006 | 12 | 244 | 0.0 | 4.8 | 0.00 | 0.00 | 0.00 | 76 | 1011.0 |
| 20260505050508 | 12 | 178 | 0.0 | 4.8 | 0.00 | 0.00 | 0.00 | 76 | 1010.8 |
| 20260505041521 | 13 | 142 | 0.0 | 3.2 | 0.00 | 0.00 | 0.00 | 72 | 1011.1 |
| 20260505041006 | 13 | 138 | 0.0 | 3.2 | 0.00 | 0.00 | 0.00 | 72 | 1011.1 |
| 20260505040506 | 13 | 242 | 0.0 | 0.0 | 0.00 | 0.00 | 0.00 | 72 | 1011.1 |
| 20260505040022 | 13 | 280 | 0.0 | 1.6 | 0.00 | 0.00 | 0.00 | 71 | 1011.1 |
| 20260505035510 | 13 | 213 | 0.0 | 3.2 | 0.00 | 0.00 | 0.00 | 71 | 1011.1 |
| 20260505035003 | 13 | 213 | 0.0 | 3.2 | 0.00 | 0.00 | 0.00 | 70 | 1011.0 |
| 20260505034503 | 13 | 188 | 0.0 | 3.2 | 0.00 | 0.00 | 0.00 | 70 | 1011.0 |
| 20260505034003 | 13 | 198 | 1.6 | 4.8 | 0.00 | 0.00 | 0.00 | 69 | 1010.9 |
| 20260505033506 | 13 | 109 | 0.0 | 6.4 | 0.00 | 0.00 | 0.00 | 69 | 1010.8 |
| 20260505033008 | 14 | 223 | 0.0 | 6.4 | 0.00 | 0.00 | 0.00 | 69 | 1010.9 |
| 20260505032503 | 14 | 169 | 0.0 | 3.2 | 0.00 | 0.00 | 0.00 | 68 | 1011.0 |
| 20260505032003 | 14 | 197 | 0.0 | 3.2 | 0.00 | 0.00 | 0.00 | 68 | 1011.0 |
| 20260505031511 | 14 | 236 | 0.0 | 8.0 | 0.00 | 0.00 | 0.00 | 67 | 1011.0 |
| 20260505031004 | 14 | 251 | 0.0 | 8.0 | 0.00 | 0.00 | 0.00 | 68 | 1011.1 |
| 20260505030506 | 14 | 156 | 0.0 | 8.0 | 0.00 | 0.00 | 0.00 | 67 | 1011.1 |
| 20260505030019 | 14 | 177 | 0.0 | 6.4 | 0.00 | 0.00 | 0.00 | 67 | 1011.1 |
| 20260505025512 | 14 | 166 | 1.6 | 4.8 | 0.00 | 0.00 | 0.00 | 67 | 1011.1 |
| 20260505025007 | 14 | 153 | 0.0 | 4.8 | 0.00 | 0.00 | 0.00 | 67 | 1011.2 |
| 20260505024523 | 14 | 187 | 1.6 | 4.8 | 0.00 | 0.00 | 0.00 | 67 | 1011.3 |
| 20260505024004 | 15 | 174 | 1.6 | 4.8 | 0.00 | 0.00 | 0.00 | 66 | 1011.3 |
| 20260505023503 | 15 | 167 | 0.0 | 4.8 | 0.00 | 0.00 | 0.00 | 66 | 1011.3 |
| 20260505023017 | 15 | 187 | 0.0 | 4.8 | 0.00 | 0.00 | 0.00 | 66 | 1011.3 |
| 20260505022503 | 15 | 171 | 1.6 | 6.4 | 0.00 | 0.00 | 0.00 | 66 | 1011.3 |
| 20260505022004 | 15 | 198 | 0.0 | 6.4 | 0.00 | 0.00 | 0.00 | 65 | 1011.3 |
| 20260505021515 | 15 | 213 | 1.6 | 3.2 | 0.00 | 0.00 | 0.00 | 65 | 1011.3 |
| 20260505021006 | 15 | 196 | 1.6 | 4.8 | 0.00 | 0.00 | 0.00 | 65 | 1011.3 |
| 20260505020503 | 15 | 142 | 0.0 | 8.0 | 0.00 | 0.00 | 0.00 | 65 | 1011.3 |
| 20260505020016 | 15 | 118 | 0.0 | 8.0 | 0.00 | 0.00 | 0.00 | 65 | 1011.4 |
| 20260505015508 | 15 | 203 | 0.0 | 4.8 | 0.00 | 0.00 | 0.00 | 65 | 1011.3 |
| 20260505015010 | 15 | 174 | 0.0 | 3.2 | 0.00 | 0.00 | 0.00 | 64 | 1011.3 |
| 20260505014524 | 15 | 172 | 0.0 | 9.7 | 0.00 | 0.00 | 0.00 | 63 | 1011.3 |
| 20260505014010 | 15 | 167 | 1.6 | 9.7 | 0.00 | 0.00 | 0.00 | 63 | 1011.3 |
| 20260505013510 | 15 | 117 | 0.0 | 3.2 | 0.00 | 0.00 | 0.00 | 63 | 1011.3 |
| 20260505013004 | 15 | 227 | 0.0 | 4.8 | 0.00 | 0.00 | 0.00 | 63 | 1011.2 |
| 20260505012504 | 15 | 215 | 1.6 | 4.8 | 0.00 | 0.00 | 0.00 | 62 | 1011.2 |
| 20260505012004 | 16 | 239 | 0.0 | 3.2 | 0.00 | 0.00 | 0.00 | 61 | 1011.1 |
| 20260505011511 | 16 | 173 | 0.0 | 8.0 | 0.00 | 0.00 | 0.00 | 61 | 1011.0 |
| 20260505011005 | 16 | 9 | 0.0 | 9.7 | 0.00 | 0.00 | 0.00 | 60 | 1011.0 |
| 20260505010510 | 16 | 192 | 1.6 | 9.7 | 0.00 | 0.00 | 0.00 | 60 | 1011.0 |
| 20260505010018 | 16 | 161 | 0.0 | 4.8 | 0.00 | 0.00 | 0.00 | 59 | 1010.8 |
| 20260505005507 | 16 | 42 | 0.0 | 6.4 | 0.00 | 0.00 | 0.00 | 58 | 1010.8 |
| 20260505005006 | 16 | 207 | 1.6 | 6.4 | 0.00 | 0.00 | 0.00 | 57 | 1010.7 |
| 20260505004523 | 16 | 157 | 1.6 | 4.8 | 0.00 | 0.00 | 0.00 | 56 | 1010.7 |
| 20260505004008 | 17 | 211 | 0.0 | 8.0 | 0.00 | 0.00 | 0.00 | 55 | 1010.7 |
| 20260505003516 | 17 | 189 | 1.6 | 8.0 | 0.00 | 0.00 | 0.00 | 54 | 1010.7 |
| 20260505003024 | 17 | 25 | 1.6 | 8.0 | 0.00 | 0.00 | 0.00 | 52 | 1010.6 |
| 20260505002510 | 17 | 223 | 1.6 | 6.4 | 0.00 | 0.00 | 0.00 | 52 | 1010.6 |
| 20260505002004 | 17 | 154 | 1.6 | 6.4 | 0.00 | 0.00 | 0.00 | 51 | 1010.5 |
| 20260505001506 | 17 | 180 | 0.0 | 3.2 | 0.00 | 0.00 | 0.00 | 49 | 1010.4 |
| 20260505001004 | 17 | 189 | 0.0 | 4.8 | 0.00 | 0.00 | 0.00 | 46 | 1010.4 |
| 20260505000504 | 18 | 189 | 0.0 | 4.8 | 0.00 | 0.00 | 0.00 | 46 | 1010.3 |
| 20260505000021 | 18 | 178 | 0.0 | 3.2 | 0.00 | 0.00 | 0.00 | 45 | 1010.2 |
| 20260504235504 | 18 | 130 | 0.0 | 3.2 | 0.00 | 0.00 | 0.00 | 42 | 1010.1 |
| 20260504235004 | 18 | 232 | 0.0 | 3.2 | 0.00 | 0.00 | 0.00 | 41 | 1010.1 |
| 20260504234518 | 19 | 232 | 0.0 | 3.2 | 0.00 | 0.00 | 0.00 | 40 | 1010.1 |
| 20260504234006 | 20 | 232 | 0.0 | 3.2 | 0.00 | 0.00 | 0.00 | 39 | 1010.0 |
| 20260504233506 | 20 | 256 | 0.0 | 4.8 | 0.00 | 0.00 | 0.00 | 39 | 1010.0 |
| 20260504233024 | 20 | 206 | 0.0 | 4.8 | 0.00 | 0.00 | 0.00 | 39 | 1010.0 |
| 20260504232511 | 20 | 200 | 1.6 | 4.8 | 0.00 | 0.00 | 0.00 | 38 | 1010.0 |
| 20260504232010 | 20 | 213 | 1.6 | 4.8 | 0.00 | 0.00 | 0.00 | 38 | 1009.9 |
| 20260504231526 | 20 | 222 | 1.6 | 4.8 | 0.00 | 0.00 | 0.00 | 37 | 1010.0 |
| 20260504231009 | 21 | 240 | 0.0 | 6.4 | 0.00 | 0.00 | 0.00 | 37 | 1010.0 |
| 20260504230504 | 21 | 192 | 1.6 | 6.4 | 0.00 | 0.00 | 0.00 | 35 | 1009.9 |
| 20260504230010 | 21 | 284 | 1.6 | 8.0 | 0.00 | 0.00 | 0.00 | 35 | 1009.9 |
| 20260504225506 | 21 | 277 | 3.2 | 11.3 | 0.00 | 0.00 | 0.00 | 35 | 1009.9 |
| 20260504225009 | 21 | 281 | 3.2 | 11.3 | 0.00 | 0.00 | 0.00 | 34 | 1009.8 |
| 20260504224519 | 21 | 229 | 1.6 | 20.9 | 0.00 | 0.00 | 0.00 | 34 | 1009.8 |
| 20260504224006 | 21 | 163 | 3.2 | 20.9 | 0.00 | 0.00 | 0.00 | 34 | 1009.7 |
| 20260504223507 | 21 | 323 | 1.6 | 19.3 | 0.00 | 0.00 | 0.00 | 33 | 1009.8 |
| 20260504223022 | 22 | 289 | 1.6 | 20.9 | 0.00 | 0.00 | 0.00 | 33 | 1009.7 |
| 20260504222506 | 22 | 303 | 3.2 | 20.9 | 0.00 | 0.00 | 0.00 | 33 | 1009.8 |
| 20260504222014 | 22 | 295 | 4.8 | 14.5 | 0.00 | 0.00 | 0.00 | 32 | 1009.8 |
| 20260504221524 | 22 | 231 | 3.2 | 14.5 | 0.00 | 0.00 | 0.00 | 32 | 1009.8 |
| 20260504221010 | 22 | 220 | 3.2 | 14.5 | 0.00 | 0.00 | 0.00 | 33 | 1009.8 |
| 20260504220512 | 22 | 152 | 3.2 | 12.9 | 0.00 | 0.00 | 0.00 | 33 | 1009.9 |
| 20260504220039 | 22 | 288 | 4.8 | 12.9 | 0.00 | 0.00 | 0.00 | 32 | 1009.9 |
| 20260504215506 | 22 | 213 | 4.8 | 17.7 | 0.00 | 0.00 | 0.00 | 32 | 1009.8 |
| 20260504215003 | 22 | 9 | 3.2 | 17.7 | 0.00 | 0.00 | 0.00 | 32 | 1009.9 |
| 20260504214520 | 22 | 244 | 4.8 | 12.9 | 0.00 | 0.00 | 0.00 | 32 | 1009.8 |
| 20260504214010 | 22 | 316 | 4.8 | 14.5 | 0.00 | 0.00 | 0.00 | 31 | 1009.8 |
| 20260504213506 | 22 | 310 | 6.4 | 20.9 | 0.00 | 0.00 | 0.00 | 32 | 1009.7 |
| 20260504213022 | 22 | 270 | 1.6 | 20.9 | 0.00 | 0.00 | 0.00 | 32 | 1009.7 |
| 20260504212509 | 22 | 286 | 3.2 | 17.7 | 0.00 | 0.00 | 0.00 | 31 | 1009.8 |
| 20260504212010 | 22 | 263 | 4.8 | 17.7 | 0.00 | 0.00 | 0.00 | 31 | 1009.8 |
| 20260504211530 | 23 | 331 | 3.2 | 9.7 | 0.00 | 0.00 | 0.00 | 32 | 1009.7 |
| 20260504211007 | 23 | 314 | 3.2 | 9.7 | 0.00 | 0.00 | 0.00 | 32 | 1009.7 |
| 20260504210510 | 23 | 187 | 1.6 | 11.3 | 0.00 | 0.00 | 0.00 | 31 | 1009.8 |
| 20260504210026 | 23 | 154 | 3.2 | 11.3 | 0.00 | 0.00 | 0.00 | 32 | 1009.8 |
| 20260504205514 | 23 | 224 | 1.6 | 12.9 | 0.00 | 0.00 | 0.00 | 31 | 1009.7 |
| 20260504205011 | 23 | 325 | 3.2 | 12.9 | 0.00 | 0.00 | 0.00 | 30 | 1009.7 |
| 20260504204518 | 23 | 288 | 3.2 | 9.7 | 0.00 | 0.00 | 0.00 | 29 | 1009.7 |
| 20260504204006 | 23 | 267 | 3.2 | 14.5 | 0.00 | 0.00 | 0.00 | 30 | 1009.8 |
| 20260504203508 | 23 | 249 | 1.6 | 14.5 | 0.00 | 0.00 | 0.00 | 31 | 1009.7 |
| 20260504203019 | 23 | 149 | 3.2 | 11.3 | 0.00 | 0.00 | 0.00 | 32 | 1009.8 |
| 20260504202505 | 23 | 242 | 4.8 | 14.5 | 0.00 | 0.00 | 0.00 | 30 | 1009.8 |
| 20260504202008 | 23 | 130 | 6.4 | 19.3 | 0.00 | 0.00 | 0.00 | 31 | 1009.7 |
| 20260504201522 | 23 | 252 | 6.4 | 19.3 | 0.00 | 0.00 | 0.00 | 29 | 1009.8 |
| 20260504201008 | 23 | 245 | 1.6 | 14.5 | 0.00 | 0.00 | 0.00 | 30 | 1009.8 |
| 20260504200512 | 23 | 218 | 3.2 | 16.1 | 0.00 | 0.00 | 0.00 | 30 | 1009.8 |
| 20260504200028 | 23 | 241 | 3.2 | 16.1 | 0.00 | 0.00 | 0.00 | 31 | 1010.0 |
| 20260504195510 | 23 | 286 | 4.8 | 16.1 | 0.00 | 0.00 | 0.00 | 32 | 1010.0 |
| 20260504195012 | 23 | 238 | 3.2 | 9.7 | 0.00 | 0.00 | 0.00 | 29 | 1010.0 |
| 20260504194528 | 23 | 296 | 0.0 | 8.0 | 0.00 | 0.00 | 0.00 | 32 | 1010.1 |
| 20260504194009 | 23 | 325 | 3.2 | 8.0 | 0.00 | 0.00 | 0.00 | 29 | 1010.1 |
| 20260504193506 | 22 | 248 | 3.2 | 12.9 | 0.00 | 0.00 | 0.00 | 30 | 1010.2 |
| 20260504193022 | 22 | 281 | 3.2 | 12.9 | 0.00 | 0.00 | 0.00 | 30 | 1010.3 |
| 20260504192506 | 23 | 134 | 4.8 | 11.3 | 0.00 | 0.00 | 0.00 | 32 | 1010.4 |
| 20260504192010 | 23 | 319 | 4.8 | 9.7 | 0.00 | 0.00 | 0.00 | 29 | 1010.5 |
| 20260504191523 | 23 | 302 | 4.8 | 9.7 | 0.00 | 0.00 | 0.00 | 30 | 1010.5 |
| 20260504191009 | 23 | 288 | 3.2 | 9.7 | 0.00 | 0.00 | 0.00 | 29 | 1010.6 |
| 20260504190507 | 23 | 215 | 4.8 | 19.3 | 0.00 | 0.00 | 0.00 | 31 | 1010.8 |
| 20260504190024 | 23 | 281 | 3.2 | 19.3 | 0.00 | 0.00 | 0.00 | 30 | 1010.8 |
| 20260504185512 | 22 | 11 | 6.4 | 17.7 | 0.00 | 0.00 | 0.00 | 31 | 1010.9 |
| 20260504185006 | 22 | 327 | 4.8 | 14.5 | 0.00 | 0.00 | 0.00 | 32 | 1011.0 |
| 20260504184508 | 22 | 255 | 4.8 | 14.5 | 0.00 | 0.00 | 0.00 | 31 | 1011.1 |
| 20260504184004 | 22 | 325 | 4.8 | 9.7 | 0.00 | 0.00 | 0.00 | 31 | 1011.2 |
| 20260504183504 | 22 | 331 | 4.8 | 12.9 | 0.00 | 0.00 | 0.00 | 29 | 1011.3 |
| 20260504183016 | 22 | 305 | 6.4 | 14.5 | 0.00 | 0.00 | 0.00 | 30 | 1011.3 |
| 20260504182503 | 22 | 360 | 6.4 | 14.5 | 0.00 | 0.00 | 0.00 | 30 | 1011.4 |
| 20260504182009 | 22 | 200 | 4.8 | 12.9 | 0.00 | 0.00 | 0.00 | 30 | 1011.4 |
| 20260504181527 | 22 | 342 | 1.6 | 14.5 | 0.00 | 0.00 | 0.00 | 33 | 1011.6 |
| 20260504181011 | 22 | 329 | 4.8 | 14.5 | 0.00 | 0.00 | 0.00 | 31 | 1011.7 |
| 20260504180511 | 22 | 12 | 1.6 | 11.3 | 0.00 | 0.00 | 0.00 | 31 | 1011.7 |
| 20260504180024 | 22 | 294 | 3.2 | 11.3 | 0.00 | 0.00 | 0.00 | 30 | 1011.9 |
| 20260504175506 | 21 | 300 | 3.2 | 17.7 | 0.00 | 0.00 | 0.00 | 30 | 1011.8 |
| 20260504175011 | 22 | 17 | 4.8 | 17.7 | 0.00 | 0.00 | 0.00 | 31 | 1011.9 |
| 20260504174508 | 22 | 16 | 4.8 | 14.5 | 0.00 | 0.00 | 0.00 | 30 | 1012.0 |
| 20260504174003 | 22 | 322 | 4.8 | 14.5 | 0.00 | 0.00 | 0.00 | 31 | 1012.0 |
| 20260504173504 | 22 | 14 | 3.2 | 14.5 | 0.00 | 0.00 | 0.00 | 31 | 1012.1 |
| 20260504173012 | 22 | 307 | 4.8 | 11.3 | 0.00 | 0.00 | 0.00 | 32 | 1012.0 |
| 20260504172504 | 22 | 205 | 3.2 | 12.9 | 0.00 | 0.00 | 0.00 | 32 | 1012.0 |
| 20260504172005 | 22 | 320 | 4.8 | 12.9 | 0.00 | 0.00 | 0.00 | 33 | 1012.0 |
| 20260504171517 | 21 | 309 | 4.8 | 12.9 | 0.00 | 0.00 | 0.00 | 32 | 1012.1 |
| 20260504171006 | 22 | 329 | 4.8 | 12.9 | 0.00 | 0.00 | 0.00 | 31 | 1012.2 |
| 20260504170510 | 21 | 298 | 3.2 | 12.9 | 0.00 | 0.00 | 0.00 | 33 | 1012.2 |
| 20260504151010 | 20 | 138 | 3.2 | 8.0 | 0.00 | 0.00 | 0.00 | 42 | 1013.6 |
| 20260504150514 | 19 | 241 | 1.6 | 19.3 | 0.00 | 0.00 | 0.00 | 43 | 1013.5 |
| 20260504141010 | 17 | 152 | 3.2 | 14.5 | 0.00 | 0.00 | 0.00 | 48 | 1013.8 |
| 20260504140510 | 17 | 300 | 3.2 | 14.5 | 0.00 | 0.00 | 0.00 | 51 | 1013.7 |
| 20260504130513 | 15 | 144 | 3.2 | 9.7 | 0.00 | 0.00 | 0.00 | 58 | 1014.4 |
| 20260504110502 | 5 | 133 | 0.0 | 0.0 | 0.00 | 0.00 | 0.00 | 82 | 1015.1 |
| 20260504100505 | 3 | 167 | 0.0 | 0.0 | 0.00 | 0.00 | 0.00 | 81 | 1015.1 |
| 20260504082003 | 6 | 202 | 0.0 | 0.0 | 0.00 | 0.00 | 0.00 | 72 | 1015.0 |
| 20260504081524 | 6 | 244 | 0.0 | 0.0 | 0.00 | 0.00 | 0.00 | 72 | 1015.0 |
| 20260504081005 | 6 | 198 | 0.0 | 1.6 | 0.00 | 0.00 | 0.00 | 72 | 1015.0 |
| 20260504080506 | 6 | 198 | 0.0 | 1.6 | 0.00 | 0.00 | 0.00 | 73 | 1015.0 |